Location: Unspecified
(0.0000°N, 0.0000°E)
Time: 22:08:27
(UTC+00:00)

DMSP F15 (USA 147) - Pass Details

Date: 09 October 2020
Orbit: 829 x 845 km, 99.0° (Epoch: 26 October)

Event Time Altitude Azimuth Distance (km) Brightness Sun altitude
Rises 04:26:44 0° 351° (N) 3,355 8.2 -20.0°
Reaches altitude 10° 04:29:25 10° 339° (NNW) 2,426 7.3 -19.3°
Enters shadow 04:30:11 13° 334° (NNW) 2,188 7.0 -19.1°
Exits shadow 04:40:21 - 217° (SW) 3,133 7.9 -16.6°
Sets 04:41:02 0° 215° (SW) 3,378 8.1 -16.4°
